• In Uzbekistan
  • List of Countries
  • For 7 days
  • Water Temperature
  • Satellite Maps
  • Weather Map
  • Weather Widgets
  • user-avatar
    Login

    Hourly Weather Zonguldak

    Today, 20 February, Tuesday

    Time Temperature Precipitation Wind Pressure Humidity
    00:00 +6°C° 0 mm 5 mps 749 mmHg 92%
    01:00 +6°C° 0 mm 5 mps 748 mmHg 92%
    02:00 +6°C° 0 mm 5 mps 748 mmHg 92%
    03:00 +6°C° 0 mm 5 mps 748 mmHg 92%
    04:00 +6°C° 0 mm 5 mps 748 mmHg 92%
    05:00 +5°C° 0 mm 5 mps 748 mmHg 92%
    06:00 +6°C° 0 mm 4 mps 748 mmHg 90%
    07:00 +6°C° 0 mm 4 mps 748 mmHg 88%
    08:00 +6°C° 0 mm 5 mps 748 mmHg 85%
    09:00 +8°C° 0 mm 5 mps 748 mmHg 79%
    10:00 +9°C° 0 mm 5 mps 748 mmHg 72%
    11:00 +10°C° 0 mm 5 mps 748 mmHg 66%
    12:00 +12°C° 0 mm 5 mps 748 mmHg 66%
    13:00 +11°C° 0 mm 6 mps 747 mmHg 65%
    14:00 +11°C° 0 mm 6 mps 747 mmHg 65%
    15:00 +10°C° 0 mm 6 mps 747 mmHg 70%
    16:00 +10°C° 0 mm 6 mps 746 mmHg 75%
    17:00 +9°C° 0 mm 6 mps 746 mmHg 81%
    18:00 +8°C° 0 mm 5 mps 746 mmHg 84%
    19:00 +7°C° 0 mm 5 mps 746 mmHg 88%
    20:00 +7°C° 0 mm 5 mps 746 mmHg 92%
    21:00 +6°C° 0 mm 5 mps 746 mmHg 91%
    22:00 +6°C° 0 mm 5 mps 746 mmHg 91%
    23:00 +6°C° 0 mm 5 mps 746 mmHg 90%

    Tomorrow, 21 February, Wednesday

    Time Temperature Precipitation Wind Pressure Humidity
    00:00 +6°C° 0 mm 5 mps 746 mmHg 89%
    01:00 +6°C° 0 mm 5 mps 746 mmHg 87%
    02:00 +6°C° 0 mm 5 mps 745 mmHg 86%
    03:00 +6°C° 0 mm 4 mps 745 mmHg 85%
    04:00 +6°C° 0 mm 4 mps 745 mmHg 83%
    05:00 +6°C° 0 mm 4 mps 745 mmHg 82%
    06:00 +7°C° 0 mm 4 mps 745 mmHg 79%
    07:00 +7°C° 0 mm 4 mps 745 mmHg 77%
    08:00 +8°C° 0 mm 4 mps 745 mmHg 74%
    09:00 +11°C° 0 mm 4 mps 745 mmHg 68%
    10:00 +13°C° 0 mm 4 mps 745 mmHg 62%
    11:00 +15°C° 0 mm 4 mps 745 mmHg 55%
    12:00 +15°C° 0 mm 4 mps 745 mmHg 57%
    13:00 +15°C° 0 mm 5 mps 744 mmHg 58%
    14:00 +15°C° 0 mm 5 mps 744 mmHg 59%
    15:00 +14°C° 0 mm 5 mps 744 mmHg 65%
    16:00 +13°C° 0 mm 5 mps 744 mmHg 71%
    17:00 +12°C° 0 mm 5 mps 744 mmHg 77%
    18:00 +11°C° 0 mm 4 mps 744 mmHg 81%
    19:00 +10°C° 0 mm 4 mps 744 mmHg 85%
    20:00 +8°C° 0 mm 4 mps 744 mmHg 89%
    21:00 +8°C° 0 mm 4 mps 744 mmHg 88%
    22:00 +8°C° 0 mm 4 mps 745 mmHg 88%
    23:00 +8°C° 0 mm 4 mps 745 mmHg 88%

    Day after tomorrow, 22 February, Thursday

    Time Temperature Precipitation Wind Pressure Humidity
    00:00 +8°C° 0 mm 3 mps 745 mmHg 87%
    01:00 +8°C° 0 mm 3 mps 745 mmHg 87%
    02:00 +8°C° 0 mm 3 mps 745 mmHg 87%
    03:00 +8°C° 0 mm 3 mps 744 mmHg 86%
    04:00 +8°C° 0 mm 2 mps 744 mmHg 86%
    05:00 +8°C° 0 mm 2 mps 744 mmHg 85%
    06:00 +9°C° 0 mm 2 mps 744 mmHg 83%
    07:00 +9°C° 0 mm 2 mps 745 mmHg 81%
    08:00 +10°C° 0 mm 2 mps 745 mmHg 80%
    09:00 +12°C° 0.1 mm 2 mps 745 mmHg 77%
    10:00 +13°C° 0.1 mm 2 mps 745 mmHg 74%
    11:00 +14°C° 0.1 mm 2 mps 745 mmHg 72%
    12:00 +14°C° 0.3 mm 2 mps 745 mmHg 75%
    13:00 +13°C° 0.3 mm 2 mps 745 mmHg 79%
    14:00 +13°C° 0.3 mm 2 mps 745 mmHg 82%
    15:00 +12°C° 0.2 mm 1 mps 745 mmHg 85%
    16:00 +12°C° 0.2 mm 1 mps 745 mmHg 88%
    17:00 +11°C° 0.2 mm 1 mps 745 mmHg 91%
    18:00 +11°C° 0 mm 1 mps 746 mmHg 92%
    19:00 +10°C° 0 mm 1 mps 746 mmHg 94%
    20:00 +10°C° 0 mm 1 mps 746 mmHg 95%
    21:00 +9°C° 0 mm 1 mps 746 mmHg 95%
    22:00 +9°C° 0 mm 1 mps 747 mmHg 95%
    23:00 +9°C° 0 mm 1 mps 747 mmHg 95%

    23 February, Friday

    Time Temperature Precipitation Wind Pressure Humidity
    00:00 +9°C° 0 mm 1 mps 747 mmHg 95%
    01:00 +9°C° 0 mm 1 mps 747 mmHg 95%
    02:00 +8°C° 0 mm 1 mps 747 mmHg 96%
    03:00 +8°C° 0 mm 1 mps 747 mmHg 96%
    04:00 +8°C° 0 mm 1 mps 747 mmHg 96%
    05:00 +8°C° 0 mm 1 mps 747 mmHg 96%
    06:00 +8°C° 0 mm 1 mps 748 mmHg 94%
    07:00 +9°C° 0 mm 1 mps 748 mmHg 92%
    08:00 +9°C° 0 mm 1 mps 748 mmHg 91%
    09:00 +11°C° 0 mm 1 mps 748 mmHg 85%
    10:00 +12°C° 0 mm 1 mps 748 mmHg 79%
    11:00 +13°C° 0 mm 2 mps 748 mmHg 73%
    12:00 +13°C° 0 mm 2 mps 748 mmHg 74%
    13:00 +13°C° 0 mm 2 mps 747 mmHg 75%
    14:00 +12°C° 0 mm 3 mps 747 mmHg 77%
    15:00 +11°C° 0 mm 3 mps 747 mmHg 81%
    16:00 +10°C° 0 mm 3 mps 747 mmHg 85%
    17:00 +9°C° 0 mm 3 mps 747 mmHg 89%
    18:00 +9°C° 0 mm 3 mps 748 mmHg 91%
    19:00 +9°C° 0 mm 3 mps 748 mmHg 93%
    20:00 +8°C° 0 mm 3 mps 748 mmHg 95%
    21:00 +8°C° 0 mm 2 mps 748 mmHg 94%
    22:00 +8°C° 0 mm 2 mps 748 mmHg 94%
    23:00 +8°C° 0 mm 2 mps 748 mmHg 93%

    24 February, Saturday

    Time Temperature Precipitation Wind Pressure Humidity
    00:00 +8°C° 0 mm 2 mps 748 mmHg 93%
    01:00 +8°C° 0 mm 2 mps 748 mmHg 94%
    02:00 +7°C° 0 mm 2 mps 747 mmHg 94%
    03:00 +7°C° 0 mm 2 mps 747 mmHg 94%
    04:00 +7°C° 0 mm 2 mps 748 mmHg 95%
    05:00 +7°C° 0 mm 2 mps 748 mmHg 95%
    06:00 +7°C° 0 mm 2 mps 748 mmHg 94%
    07:00 +7°C° 0 mm 3 mps 748 mmHg 93%
    08:00 +8°C° 0 mm 3 mps 748 mmHg 92%
    09:00 +8°C° 0 mm 3 mps 748 mmHg 89%
    10:00 +8°C° 0 mm 4 mps 747 mmHg 86%
    11:00 +8°C° 0 mm 4 mps 747 mmHg 83%
    12:00 +8°C° 0 mm 4 mps 747 mmHg 84%
    13:00 +8°C° 0 mm 4 mps 746 mmHg 86%
    14:00 +7°C° 0 mm 4 mps 746 mmHg 87%
    15:00 +7°C° 0.1 mm 4 mps 746 mmHg 88%
    16:00 +6°C° 0.1 mm 4 mps 746 mmHg 90%
    17:00 +6°C° 0.1 mm 4 mps 746 mmHg 91%
    18:00 +6°C° 0.1 mm 5 mps 746 mmHg 91%
    19:00 +5°C° 0.1 mm 5 mps 746 mmHg 92%
    20:00 +5°C° 0.1 mm 5 mps 746 mmHg 93%
    21:00 +4°C° 0.1 mm 6 mps 746 mmHg 92%
    22:00 +4°C° 0.1 mm 6 mps 746 mmHg 92%
    23:00 +3°C° 0.1 mm 6 mps 746 mmHg 92%

    25 February, Sunday

    Time Temperature Precipitation Wind Pressure Humidity
    00:00 +3°C° 0.1 mm 6 mps 746 mmHg 92%
    01:00 +3°C° 0.1 mm 7 mps 746 mmHg 92%
    02:00 +3°C° 0.1 mm 7 mps 746 mmHg 91%
    03:00 +1°C° 0.2 mm 8 mps 746 mmHg 91%
    04:00 +1°C° 0.2 mm 8 mps 746 mmHg 91%
    05:00 +1°C° 0.2 mm 8 mps 746 mmHg 90%
    06:00 0°C° 0.8 mm 8 mps 746 mmHg 91%
    07:00 0°C° 0.8 mm 8 mps 746 mmHg 91%
    08:00 -1°C° 0.8 mm 8 mps 747 mmHg 92%
    09:00 -1°C° 1.1 mm 8 mps 747 mmHg 92%
    10:00 -1°C° 1.1 mm 7 mps 747 mmHg 92%
    11:00 -1°C° 1.1 mm 7 mps 747 mmHg 93%
    12:00 -1°C° 0.7 mm 7 mps 747 mmHg 93%
    13:00 -1°C° 0.7 mm 7 mps 747 mmHg 92%
    14:00 -1°C° 0.7 mm 7 mps 747 mmHg 92%
    15:00 -1°C° 0.3 mm 6 mps 747 mmHg 93%
    16:00 -1°C° 0.3 mm 6 mps 747 mmHg 93%
    17:00 -1°C° 0.3 mm 6 mps 748 mmHg 93%
    18:00 -1°C° 0.1 mm 6 mps 748 mmHg 94%
    19:00 -2°C° 0.1 mm 6 mps 748 mmHg 94%
    20:00 -1°C° 0.1 mm 5 mps 749 mmHg 95%
    21:00 -1°C° 0.1 mm 5 mps 749 mmHg 94%
    22:00 -1°C° 0.1 mm 5 mps 749 mmHg 94%
    23:00 -1°C° 0.1 mm 5 mps 749 mmHg 94%
    Show more